Location: Nairn
(57.5833°N, 3.8667°W)
Time: 02:34:09
(UTC+00:00)

Vanguard 1 Rocket - Pass Details

Date: 26 November 2020
Orbit: 655 x 4221 km, 34.3° (Epoch: 20 January)

Event Time Altitude Azimuth Distance (km) Brightness Sun altitude
Exits shadow 04:19:03 23° 216° (SW) 5,512 10.9 -31.4°
Maximum altitude 04:27:28 30° 184° (S) 4,356 10.6 -30.3°
Drops below altitude 10° 04:38:38 10° 129° (SE) 4,573 11.5 -28.9°
Sets 04:42:02 0° 119° (ESE) 5,137 12.1 -28.4°
